This is the latest recevied weather packets stored in our database for station/object WB5RFA. If no packets are shown the sender has not sent any weather packets the latest 10 day(s).
| Time | Temp. | Humidity | Pressure | Rain* | Wind** | Luminosity | Snow |
|---|---|---|---|---|---|---|---|
| 1777490712 | 15.56° C | 53% | 1018.4 hPa | 0 mm | - | - | - |
| 1777490230 | 15.56° C | 51% | 1018.6 hPa | 0 mm | - | - | - |
| 1777489751 | 15.56° C | 54% | 1018.7 hPa | 0 mm | - | - | - |
| 1777489271 | 15.56° C | 53% | 1018.7 hPa | 0 mm | - | - | - |
| 1777488791 | 15.56° C | 55% | 1018.8 hPa | 0 mm | - | - | - |
| 1777488310 | 15.56° C | 53% | 1018.8 hPa | 0 mm | - | - | - |
| 1777487832 | 15.56° C | 53% | 1018.8 hPa | 0 mm | - | - | - |
| 1777487351 | 15° C | 57% | 1018.8 hPa | 0 mm | - | - | - |
| 1777486871 | 15° C | 57% | 1018.9 hPa | 0 mm | - | - | - |
| 1777486392 | 15° C | 57% | 1019.1 hPa | 0 mm | - | - | - |
| 1777485911 | 15° C | 57% | 1019.1 hPa | 0 mm | - | - | - |
| 1777485431 | 15.56° C | 58% | 1019.3 hPa | 0 mm | - | - | - |
| 1777484952 | 15° C | 58% | 1019.4 hPa | 0 mm | - | - | - |
| 1777484472 | 15.56° C | 56% | 1019.6 hPa | 0 mm | - | - | - |
| 1777483991 | 15.56° C | 57% | 1019.8 hPa | 0 mm | - | - | - |
| 1777483510 | 15.56° C | 57% | 1019.8 hPa | 0 mm | - | - | - |
| 1777483032 | 15.56° C | 59% | 1019.9 hPa | 0 mm | - | - | - |
| 1777482551 | 15° C | 58% | 1019.8 hPa | 0 mm | - | - | - |
| 1777482069 | 14.44° C | 59% | 1020 hPa | 0 mm | - | - | - |
| 1777481590 | 14.44° C | 59% | 1020.1 hPa | 0 mm | - | - | - |
| 1777481190 | 14.44° C | 63% | 1019.9 hPa | 0 mm | - | - | - |
| 1777480709 | 14.44° C | 61% | 1020 hPa | 0 mm | - | - | - |
| 1777480230 | 14.44° C | 62% | 1020 hPa | 0 mm | - | - | - |
| 1777479749 | 13.33° C | 63% | 1020 hPa | 0 mm | - | - | - |
| 1777479269 | 13.33° C | 63% | 1019.9 hPa | 0 mm | - | - | - |
* Rain latest hour (hover to see other rain measurements)
** Current wind speed in m/s (hover to see current wind gust speed)